Time,TemperatureF,DewpointF,PressureIn,WindDirection,WindDirectionDegrees,WindSpeedMPH,WindSpeedGustMPH,Humidity,HourlyPrecipIn,Conditions,Clouds,dailyrainin,SoftwareType,DateUTC
2013-11-13 00:00:00,26.6,16.4,30.16,NNE,33,4.0,4.0,65,0.00,,,0.00,Wunderground v.1.15,2013-11-13 05:00:00,
2013-11-13 00:05:00,26.6,16.4,30.16,NE,46,4.0,9.0,65,0.00,,,0.00,Wunderground v.1.15,2013-11-13 05:05:00,
2013-11-13 00:10:00,26.6,16.4,30.17,North,349,3.0,3.0,65,0.00,,,0.00,Wunderground v.1.15,2013-11-13 05:10:00,
2013-11-13 00:20:00,26.6,16.8,30.17,NW,326,2.0,2.0,66,0.00,,,0.00,Wunderground v.1.15,2013-11-13 05:20:00,
2013-11-13 00:25:00,26.5,16.7,30.17,NW,323,2.0,6.0,66,0.00,,,0.00,Wunderground v.1.15,2013-11-13 05:25:00,
2013-11-13 00:30:00,26.5,16.7,30.17,NNE,17,2.0,2.0,66,0.00,,,0.00,Wunderground v.1.15,2013-11-13 05:30:00,
2013-11-13 00:35:00,26.4,16.6,30.17,North,5,3.0,3.0,66,0.00,,,0.00,Wunderground v.1.15,2013-11-13 05:35:00,
2013-11-13 00:40:00,26.3,16.5,30.17,North,350,2.0,2.0,66,0.00,,,0.00,Wunderground v.1.15,2013-11-13 05:40:00,
2013-11-13 00:45:00,26.3,16.5,30.17,North,5,2.0,3.0,66,0.00,,,0.00,Wunderground v.1.15,2013-11-13 05:45:00,
2013-11-13 00:50:00,26.2,16.4,30.17,North,355,3.0,3.0,66,0.00,,,0.00,Wunderground v.1.15,2013-11-13 05:50:00,
2013-11-13 00:55:00,26.2,16.4,30.17,NW,317,4.0,4.0,66,0.00,,,0.00,Wunderground v.1.15,2013-11-13 05:55:00,
2013-11-13 01:00:00,26.1,16.3,30.17,North,5,4.0,4.0,66,0.00,,,0.00,Wunderground v.1.15,2013-11-13 06:00:00,
2013-11-13 01:05:00,26.0,16.2,30.18,North,355,2.0,4.0,66,0.00,,,0.00,Wunderground v.1.15,2013-11-13 06:05:00,
2013-11-13 01:15:00,25.8,16.0,30.18,North,10,6.0,7.0,66,0.00,,,0.00,Wunderground v.1.15,2013-11-13 06:15:00,
2013-11-13 01:25:00,25.6,15.8,30.18,North,350,3.0,9.0,66,0.00,,,0.00,Wunderground v.1.15,2013-11-13 06:25:00,
2013-11-13 01:30:00,25.4,15.6,30.18,WNW,299,2.0,5.0,66,0.00,,,0.00,Wunderground v.1.15,2013-11-13 06:30:00,
2013-11-13 01:40:00,25.2,15.8,30.18,NNW,348,2.0,2.0,67,0.00,,,0.00,Wunderground v.1.15,2013-11-13 06:40:00,
2013-11-13 01:45:00,25.1,15.3,30.18,NW,326,2.0,2.0,66,0.00,,,0.00,Wunderground v.1.15,2013-11-13 06:45:00,
2013-11-13 01:55:00,25.0,15.2,30.19,NNW,338,4.0,4.0,66,0.00,,,0.00,Wunderground v.1.15,2013-11-13 06:55:00,
2013-11-13 02:00:00,24.9,15.1,30.19,NNW,346,3.0,3.0,66,0.00,,,0.00,Wunderground v.1.15,2013-11-13 07:00:00,
2013-11-13 02:05:00,24.9,15.1,30.19,NW,306,2.0,3.0,66,0.00,,,0.00,Wunderground v.1.15,2013-11-13 07:05:00,
2013-11-13 02:15:00,24.8,15.0,30.19,WNW,287,1.0,2.0,66,0.00,,,0.00,Wunderground v.1.15,2013-11-13 07:15:00,
2013-11-13 02:25:00,24.6,14.9,30.19,NNW,336,2.0,2.0,66,0.00,,,0.00,Wunderground v.1.15,2013-11-13 07:25:00,
2013-11-13 02:30:00,24.5,14.8,30.19,North,350,3.0,3.0,66,0.00,,,0.00,Wunderground v.1.15,2013-11-13 07:30:00,
2013-11-13 02:40:00,24.3,14.9,30.19,North,11,4.0,6.0,67,0.00,,,0.00,Wunderground v.1.15,2013-11-13 07:40:00,
2013-11-13 02:45:00,24.2,14.8,30.19,North,11,3.0,6.0,67,0.00,,,0.00,Wunderground v.1.15,2013-11-13 07:45:00,
2013-11-13 02:55:00,23.9,14.5,30.19,WNW,302,1.0,3.0,67,0.00,,,0.00,Wunderground v.1.15,2013-11-13 07:55:00,
2013-11-13 03:00:00,23.7,14.3,30.19,NNW,343,1.0,4.0,67,0.00,,,0.00,Wunderground v.1.15,2013-11-13 08:00:00,
2013-11-13 03:05:00,23.8,14.4,30.19,North,360,3.0,4.0,67,0.00,,,0.00,Wunderground v.1.15,2013-11-13 08:05:00,
2013-11-13 03:15:00,23.5,14.1,30.19,NNE,17,1.0,3.0,67,0.00,,,0.00,Wunderground v.1.15,2013-11-13 08:15:00,
2013-11-13 03:25:00,23.5,14.1,30.20,NNE,16,3.0,3.0,67,0.00,,,0.00,Wunderground v.1.15,2013-11-13 08:25:00,
2013-11-13 03:30:00,23.5,14.1,30.20,NW,319,4.0,4.0,67,0.00,,,0.00,Wunderground v.1.15,2013-11-13 08:30:00,
2013-11-13 03:40:00,23.3,14.0,30.19,NNW,345,3.0,3.0,67,0.00,,,0.00,Wunderground v.1.15,2013-11-13 08:40:00,
2013-11-13 03:45:00,23.2,13.9,30.19,West,281,2.0,3.0,67,0.00,,,0.00,Wunderground v.1.15,2013-11-13 08:45:00,
2013-11-13 03:50:00,23.0,14.0,30.19,NNW,347,1.0,3.0,68,0.00,,,0.00,Wunderground v.1.15,2013-11-13 08:50:00,
2013-11-13 04:00:00,22.9,13.9,30.20,NE,38,1.0,3.0,68,0.00,,,0.00,Wunderground v.1.15,2013-11-13 09:00:00,
2013-11-13 04:05:00,22.8,13.8,30.20,North,360,1.0,3.0,68,0.00,,,0.00,Wunderground v.1.15,2013-11-13 09:05:00,
2013-11-13 04:15:00,22.5,13.9,30.20,NW,326,1.0,1.0,69,0.00,,,0.00,Wunderground v.1.15,2013-11-13 09:15:00,
2013-11-13 04:25:00,22.4,13.8,30.21,SE,146,1.0,1.0,69,0.00,,,0.00,Wunderground v.1.15,2013-11-13 09:25:00,
2013-11-13 04:30:00,22.3,13.7,30.21,WSW,246,0.0,1.0,69,0.00,,,0.00,Wunderground v.1.15,2013-11-13 09:30:00,
2013-11-13 04:35:00,22.2,13.9,30.21,SW,217,0.0,1.0,70,0.00,,,0.00,Wunderground v.1.15,2013-11-13 09:35:00,
2013-11-13 04:45:00,22.1,13.8,30.21,North,360,1.0,2.0,70,0.00,,,0.00,Wunderground v.1.15,2013-11-13 09:45:00,
2013-11-13 04:55:00,22.1,13.8,30.22,NW,305,1.0,1.0,70,0.00,,,0.00,Wunderground v.1.15,2013-11-13 09:55:00,
2013-11-13 05:00:00,22.1,15.7,30.22,NNW,340,1.0,1.0,76,0.00,,,0.00,Wunderground v.1.15,2013-11-13 10:00:00,
2013-11-13 05:05:00,22.1,14.1,30.22,NW,304,1.0,1.0,71,0.00,,,0.00,Wunderground v.1.15,2013-11-13 10:05:00,
2013-11-13 05:15:00,21.9,13.9,30.23,NNE,21,0.0,0.0,71,0.00,,,0.00,Wunderground v.1.15,2013-11-13 10:15:00,
2013-11-13 05:25:00,22.0,14.0,30.23,NNW,331,0.0,0.0,71,0.00,,,0.00,Wunderground v.1.15,2013-11-13 10:25:00,
2013-11-13 05:30:00,22.0,14.3,30.23,NNE,12,0.0,0.0,72,0.00,,,0.00,Wunderground v.1.15,2013-11-13 10:30:00,
2013-11-13 05:40:00,21.9,14.3,30.24,North,350,1.0,1.0,72,0.00,,,0.00,Wunderground v.1.15,2013-11-13 10:40:00,
2013-11-13 05:45:00,21.9,14.3,30.24,WNW,298,1.0,1.0,72,0.00,,,0.00,Wunderground v.1.15,2013-11-13 10:45:00,
2013-11-13 05:50:00,21.8,14.2,30.24,NNW,330,1.0,1.0,72,0.00,,,0.00,Wunderground v.1.15,2013-11-13 10:50:00,
2013-11-13 06:00:00,21.6,14.0,30.24,NNE,18,0.0,0.0,72,0.00,,,0.00,Wunderground v.1.15,2013-11-13 11:00:00,
2013-11-13 06:05:00,21.6,14.0,30.24,NNE,18,0.0,0.0,72,0.00,,,0.00,Wunderground v.1.15,2013-11-13 11:05:00,
2013-11-13 06:15:00,21.6,13.6,30.25,North,355,1.0,2.0,71,0.00,,,0.00,Wunderground v.1.15,2013-11-13 11:15:00,
2013-11-13 06:20:00,21.6,14.0,30.25,NNW,344,1.0,1.0,72,0.00,,,0.00,Wunderground v.1.15,2013-11-13 11:20:00,
2013-11-13 06:30:00,21.4,13.8,30.25,West,269,0.0,2.0,72,0.00,,,0.00,Wunderground v.1.15,2013-11-13 11:30:00,
2013-11-13 06:35:00,21.4,14.1,30.25,North,349,0.0,2.0,73,0.00,,,0.00,Wunderground v.1.15,2013-11-13 11:35:00,
2013-11-13 06:45:00,21.2,13.9,30.26,NNW,340,0.0,0.0,73,0.00,,,0.00,Wunderground v.1.15,2013-11-13 11:45:00,
2013-11-13 06:50:00,21.2,13.9,30.27,North,350,0.0,0.0,73,0.00,,,0.00,Wunderground v.1.15,2013-11-13 11:50:00,
2013-11-13 07:00:00,21.3,14.0,30.27,North,355,1.0,2.0,73,0.00,,,0.00,Wunderground v.1.15,2013-11-13 12:00:00,
2013-11-13 07:05:00,21.3,14.0,30.27,NNE,26,1.0,2.0,73,0.00,,,0.00,Wunderground v.1.15,2013-11-13 12:05:00,
2013-11-13 07:15:00,21.3,14.0,30.27,WNW,286,0.0,1.0,73,0.00,,,0.00,Wunderground v.1.15,2013-11-13 12:15:00,
2013-11-13 07:20:00,21.5,14.2,30.27,ENE,60,0.0,0.0,73,0.00,,,0.00,Wunderground v.1.15,2013-11-13 12:20:00,
2013-11-13 07:30:00,21.7,14.1,30.27,North,355,0.0,1.0,72,0.00,,,0.00,Wunderground v.1.15,2013-11-13 12:30:00,
2013-11-13 07:35:00,21.8,14.5,30.27,NE,36,0.0,3.0,73,0.00,,,0.00,Wunderground v.1.15,2013-11-13 12:35:00,
2013-11-13 07:45:00,22.4,14.7,30.28,NNE,18,1.0,2.0,72,0.00,,,0.00,Wunderground v.1.15,2013-11-13 12:45:00,
2013-11-13 07:50:00,22.7,14.7,30.28,NNW,340,2.0,5.0,71,0.00,,,0.00,Wunderground v.1.15,2013-11-13 12:50:00,
2013-11-13 07:55:00,23.0,14.7,30.28,NW,315,2.0,5.0,70,0.00,,,0.00,Wunderground v.1.15,2013-11-13 12:55:00,
2013-11-13 08:05:00,23.2,15.2,30.27,North,355,1.0,2.0,71,0.00,,,0.00,Wunderground v.1.15,2013-11-13 13:05:00,
2013-11-13 08:15:00,23.9,14.9,30.28,North,5,2.0,2.0,68,0.00,,,0.00,Wunderground v.1.15,2013-11-13 13:15:00,
2013-11-13 08:20:00,23.8,14.8,30.28,NNE,21,2.0,2.0,68,0.00,,,0.00,Wunderground v.1.15,2013-11-13 13:20:00,
2013-11-13 08:25:00,23.7,14.3,30.28,North,5,2.0,2.0,67,0.00,,,0.00,Wunderground v.1.15,2013-11-13 13:25:00,
2013-11-13 08:35:00,23.9,14.5,30.28,NNW,338,3.0,6.0,67,0.00,,,0.00,Wunderground v.1.15,2013-11-13 13:35:00,
2013-11-13 08:40:00,24.2,14.8,30.28,South,188,4.0,4.0,67,0.00,,,0.00,Wunderground v.1.15,2013-11-13 13:40:00,
2013-11-13 08:50:00,24.8,15.4,30.28,NNE,14,3.0,4.0,67,0.00,,,0.00,Wunderground v.1.15,2013-11-13 13:50:00,
2013-11-13 09:00:00,25.0,14.5,30.28,NNW,333,6.0,8.0,64,0.00,,,0.00,Wunderground v.1.15,2013-11-13 14:00:00,
2013-11-13 09:05:00,25.2,14.7,30.28,North,355,5.0,8.0,64,0.00,,,0.00,Wunderground v.1.15,2013-11-13 14:05:00,
2013-11-13 09:15:00,25.3,14.8,30.28,NNW,338,5.0,5.0,64,0.00,,,0.00,Wunderground v.1.15,2013-11-13 14:15:00,
2013-11-13 09:20:00,25.5,14.3,30.28,NNE,21,5.0,5.0,62,0.00,,,0.00,Wunderground v.1.15,2013-11-13 14:20:00,
2013-11-13 09:30:00,25.7,14.8,30.28,North,355,4.0,4.0,63,0.00,,,0.00,Wunderground v.1.15,2013-11-13 14:30:00,
2013-11-13 09:35:00,25.9,14.7,30.28,NNW,336,3.0,6.0,62,0.00,,,0.00,Wunderground v.1.15,2013-11-13 14:35:00,
2013-11-13 09:40:00,25.9,15.0,30.28,ESE,111,4.0,4.0,63,0.00,,,0.00,Wunderground v.1.15,2013-11-13 14:40:00,
2013-11-13 09:50:00,26.9,15.2,30.29,NNE,30,2.0,3.0,61,0.00,,,0.00,Wunderground v.1.15,2013-11-13 14:50:00,
2013-11-13 09:55:00,26.9,15.2,30.29,NNW,342,3.0,3.0,61,0.00,,,0.00,Wunderground v.1.15,2013-11-13 14:55:00,
2013-11-13 10:05:00,27.2,15.9,30.29,North,349,2.0,3.0,62,0.00,,,0.00,Wunderground v.1.15,2013-11-13 15:05:00,
2013-11-13 10:15:00,28.1,16.0,30.28,NW,321,1.0,1.0,60,0.00,,,0.00,Wunderground v.1.15,2013-11-13 15:15:00,
2013-11-13 10:20:00,28.2,15.3,30.28,NW,313,1.0,3.0,58,0.00,,,0.00,Wunderground v.1.15,2013-11-13 15:20:00,
2013-11-13 10:25:00,28.0,15.5,30.28,NNW,336,2.0,3.0,59,0.00,,,0.00,Wunderground v.1.15,2013-11-13 15:25:00,
2013-11-13 10:35:00,28.7,16.6,30.28,NNW,336,1.0,2.0,60,0.00,,,0.00,Wunderground v.1.15,2013-11-13 15:35:00,
2013-11-13 10:40:00,28.5,16.0,30.28,NW,313,2.0,2.0,59,0.00,,,0.00,Wunderground v.1.15,2013-11-13 15:40:00,
2013-11-13 10:45:00,28.3,15.4,30.27,WSW,247,2.0,2.0,58,0.00,,,0.00,Wunderground v.1.15,2013-11-13 15:45:00,
2013-11-13 10:55:00,28.3,15.8,30.27,West,273,3.0,5.0,59,0.00,,,0.00,Wunderground v.1.15,2013-11-13 15:55:00,
2013-11-13 11:00:00,28.5,15.6,30.27,NW,305,2.0,2.0,58,0.00,,,0.00,Wunderground v.1.15,2013-11-13 16:00:00,
2013-11-13 11:05:00,29.0,16.4,30.27,East,88,2.0,2.0,59,0.00,,,0.00,Wunderground v.1.15,2013-11-13 16:05:00,
2013-11-13 11:15:00,29.2,15.8,30.26,SW,225,3.0,3.0,57,0.00,,,0.00,Wunderground v.1.15,2013-11-13 16:15:00,
2013-11-13 11:20:00,29.0,14.8,30.26,NNW,348,4.0,4.0,55,0.00,,,0.00,Wunderground v.1.15,2013-11-13 16:20:00,
2013-11-13 11:25:00,29.2,15.4,30.26,NNW,348,3.0,6.0,56,0.00,,,0.00,Wunderground v.1.15,2013-11-13 16:25:00,
2013-11-13 11:35:00,29.4,15.6,30.25,WSW,252,4.0,4.0,56,0.00,,,0.00,Wunderground v.1.15,2013-11-13 16:35:00,
2013-11-13 11:40:00,29.4,15.2,30.25,NNW,346,4.0,4.0,55,0.00,,,0.00,Wunderground v.1.15,2013-11-13 16:40:00,
2013-11-13 11:45:00,29.4,15.2,30.25,NNE,24,4.0,4.0,55,0.00,,,0.00,Wunderground v.1.15,2013-11-13 16:45:00,
2013-11-13 11:55:00,29.9,14.8,30.25,SW,219,2.0,12.0,53,0.00,,,0.00,Wunderground v.1.15,2013-11-13 16:55:00,
2013-11-13 12:00:00,29.9,15.3,30.25,NNW,332,4.0,7.0,54,0.00,,,0.00,Wunderground v.1.15,2013-11-13 17:00:00,
2013-11-13 12:05:00,29.8,14.7,30.25,West,281,4.0,7.0,53,0.00,,,0.00,Wunderground v.1.15,2013-11-13 17:05:00,
2013-11-13 12:15:00,30.1,15.0,30.25,NNW,338,3.0,4.0,53,0.00,,,0.00,Wunderground v.1.15,2013-11-13 17:15:00,
2013-11-13 12:25:00,30.6,15.0,30.24,NNE,22,3.0,11.0,52,0.00,,,0.00,Wunderground v.1.15,2013-11-13 17:25:00,
2013-11-13 12:35:00,30.4,14.9,30.23,North,5,6.0,6.0,52,0.00,,,0.00,Wunderground v.1.15,2013-11-13 17:35:00,
2013-11-13 12:40:00,30.5,14.5,30.23,North,5,4.0,4.0,51,0.00,,,0.00,Wunderground v.1.15,2013-11-13 17:40:00,
2013-11-13 12:50:00,30.9,14.4,30.23,NNW,344,3.0,5.0,50,0.00,,,0.00,Wunderground v.1.15,2013-11-13 17:50:00,
2013-11-13 12:55:00,30.8,13.9,30.22,SW,225,4.0,5.0,49,0.00,,,0.00,Wunderground v.1.15,2013-11-13 17:55:00,
2013-11-13 13:00:00,31.0,14.5,30.23,North,9,4.0,9.0,50,0.00,,,0.00,Wunderground v.1.15,2013-11-13 18:00:00,
2013-11-13 13:05:00,31.0,15.0,30.22,NW,314,4.0,9.0,51,0.00,,,0.00,Wunderground v.1.15,2013-11-13 18:05:00,
2013-11-13 13:15:00,31.4,14.4,30.22,NNW,330,3.0,5.0,49,0.00,,,0.00,Wunderground v.1.15,2013-11-13 18:15:00,
2013-11-13 13:20:00,31.2,14.2,30.22,West,276,4.0,5.0,49,0.00,,,0.00,Wunderground v.1.15,2013-11-13 18:20:00,
2013-11-13 13:25:00,31.3,14.3,30.22,NW,307,4.0,5.0,49,0.00,,,0.00,Wunderground v.1.15,2013-11-13 18:25:00,
2013-11-13 13:30:00,31.4,14.4,30.22,WSW,240,3.0,6.0,49,0.00,,,0.00,Wunderground v.1.15,2013-11-13 18:30:00,
2013-11-13 13:40:00,31.7,14.7,30.22,NNE,24,2.0,3.0,49,0.00,,,0.00,Wunderground v.1.15,2013-11-13 18:40:00,
2013-11-13 13:45:00,31.9,14.4,30.22,NNW,332,2.0,5.0,48,0.00,,,0.00,Wunderground v.1.15,2013-11-13 18:45:00,
2013-11-13 13:55:00,31.9,13.9,30.22,North,11,3.0,3.0,47,0.00,,,0.00,Wunderground v.1.15,2013-11-13 18:55:00,
2013-11-13 14:00:00,31.5,13.6,30.22,NNW,344,6.0,6.0,47,0.00,,,0.00,Wunderground v.1.15,2013-11-13 19:00:00,
2013-11-13 14:05:00,31.5,13.6,30.22,North,9,5.0,6.0,47,0.00,,,0.00,Wunderground v.1.15,2013-11-13 19:05:00,
2013-11-13 14:15:00,32.0,15.0,30.21,WNW,288,2.0,9.0,49,0.00,,,0.00,Wunderground v.1.15,2013-11-13 19:15:00,
2013-11-13 14:20:00,32.1,14.6,30.21,ENE,68,2.0,2.0,48,0.00,,,0.00,Wunderground v.1.15,2013-11-13 19:20:00,
2013-11-13 14:30:00,32.1,14.6,30.22,NNW,341,2.0,2.0,48,0.00,,,0.00,Wunderground v.1.15,2013-11-13 19:30:00,
2013-11-13 14:35:00,32.0,13.5,30.21,NW,315,3.0,3.0,46,0.00,,,0.00,Wunderground v.1.15,2013-11-13 19:35:00,
2013-11-13 14:45:00,31.7,13.3,30.22,WNW,294,3.0,3.0,46,0.00,,,0.00,Wunderground v.1.15,2013-11-13 19:45:00,
2013-11-13 14:50:00,31.5,12.6,30.22,NNE,20,3.0,3.0,45,0.00,,,0.00,Wunderground v.1.15,2013-11-13 19:50:00,
2013-11-13 14:55:00,31.5,13.1,30.22,WSW,244,2.0,3.0,46,0.00,,,0.00,Wunderground v.1.15,2013-11-13 19:55:00,
2013-11-13 15:05:00,31.4,12.5,30.22,NNW,332,2.0,2.0,45,0.00,,,0.00,Wunderground v.1.15,2013-11-13 20:05:00,
2013-11-13 15:15:00,31.1,12.2,30.21,NNE,20,3.0,6.0,45,0.00,,,0.00,Wunderground v.1.15,2013-11-13 20:15:00,
2013-11-13 15:20:00,31.0,12.1,30.21,NNE,20,3.0,3.0,45,0.00,,,0.00,Wunderground v.1.15,2013-11-13 20:20:00,
2013-11-13 15:30:00,30.8,12.4,30.21,West,259,2.0,2.0,46,0.00,,,0.00,Wunderground v.1.15,2013-11-13 20:30:00,
2013-11-13 15:35:00,30.8,11.9,30.21,NNW,337,2.0,11.0,45,0.00,,,0.00,Wunderground v.1.15,2013-11-13 20:35:00,
2013-11-13 15:45:00,30.7,12.3,30.21,NW,325,2.0,2.0,46,0.00,,,0.00,Wunderground v.1.15,2013-11-13 20:45:00,
2013-11-13 15:50:00,30.6,12.2,30.21,WNW,286,1.0,1.0,46,0.00,,,0.00,Wunderground v.1.15,2013-11-13 20:50:00,
2013-11-13 16:00:00,30.5,12.2,30.21,NNW,327,1.0,1.0,46,0.00,,,0.00,Wunderground v.1.15,2013-11-13 21:00:00,
2013-11-13 16:05:00,30.4,11.6,30.21,WNW,292,0.0,1.0,45,0.00,,,0.00,Wunderground v.1.15,2013-11-13 21:05:00,
2013-11-13 16:15:00,30.3,11.5,30.21,NNE,21,1.0,1.0,45,0.00,,,0.00,Wunderground v.1.15,2013-11-13 21:15:00,
2013-11-13 16:20:00,30.2,11.4,30.21,NNE,22,0.0,0.0,45,0.00,,,0.00,Wunderground v.1.15,2013-11-13 21:20:00,
2013-11-13 16:30:00,29.9,11.1,30.20,NW,316,1.0,3.0,45,0.00,,,0.00,Wunderground v.1.15,2013-11-13 21:30:00,
2013-11-13 16:35:00,29.9,11.1,30.21,ENE,77,1.0,3.0,45,0.00,,,0.00,Wunderground v.1.15,2013-11-13 21:35:00,
2013-11-13 16:45:00,29.8,11.5,30.21,NNE,30,0.0,1.0,46,0.00,,,0.00,Wunderground v.1.15,2013-11-13 21:45:00,
2013-11-13 16:50:00,29.8,11.5,30.22,North,349,1.0,1.0,46,0.00,,,0.00,Wunderground v.1.15,2013-11-13 21:50:00,
2013-11-13 17:00:00,29.7,11.9,30.22,NNE,28,0.0,0.0,47,0.00,,,0.00,Wunderground v.1.15,2013-11-13 22:00:00,
2013-11-13 17:05:00,29.6,11.8,30.22,SW,223,0.0,0.0,47,0.00,,,0.00,Wunderground v.1.15,2013-11-13 22:05:00,
2013-11-13 17:15:00,29.5,12.2,30.22,NE,40,0.0,1.0,48,0.00,,,0.00,Wunderground v.1.15,2013-11-13 22:15:00,
2013-11-13 17:25:00,29.5,12.2,30.22,WSW,249,0.0,0.0,48,0.00,,,0.00,Wunderground v.1.15,2013-11-13 22:25:00,
2013-11-13 17:30:00,29.3,12.0,30.21,WSW,251,0.0,0.0,48,0.00,,,0.00,Wunderground v.1.15,2013-11-13 22:30:00,
2013-11-13 17:35:00,29.2,12.4,30.21,SSW,199,0.0,0.0,49,0.00,,,0.00,Wunderground v.1.15,2013-11-13 22:35:00,
2013-11-13 17:45:00,28.9,12.6,30.21,SSW,199,0.0,0.0,50,0.00,,,0.00,Wunderground v.1.15,2013-11-13 22:45:00,
2013-11-13 17:50:00,28.6,13.6,30.21,SSW,199,0.0,0.0,53,0.00,,,0.00,Wunderground v.1.15,2013-11-13 22:50:00,
2013-11-13 18:00:00,27.8,13.3,30.21,SSW,199,0.0,0.0,54,0.00,,,0.00,Wunderground v.1.15,2013-11-13 23:00:00,
2013-11-13 18:05:00,27.3,14.1,30.21,SSW,199,0.0,0.0,57,0.00,,,0.00,Wunderground v.1.15,2013-11-13 23:05:00,
2013-11-13 18:15:00,27.3,12.8,30.21,WSW,248,0.0,0.0,54,0.00,,,0.00,Wunderground v.1.15,2013-11-13 23:15:00,
2013-11-13 18:20:00,27.3,13.7,30.21,WSW,249,0.0,0.0,56,0.00,,,0.00,Wunderground v.1.15,2013-11-13 23:20:00,
2013-11-13 18:30:00,27.0,13.4,30.20,WSW,249,0.0,0.0,56,0.00,,,0.00,Wunderground v.1.15,2013-11-13 23:30:00,
2013-11-13 18:35:00,26.9,13.3,30.20,WSW,249,0.0,0.0,56,0.00,,,0.00,Wunderground v.1.15,2013-11-13 23:35:00,
2013-11-13 18:45:00,26.6,13.8,30.20,WSW,249,0.0,0.0,58,0.00,,,0.00,Wunderground v.1.15,2013-11-13 23:45:00,
2013-11-13 18:50:00,26.2,13.8,30.20,WSW,249,0.0,0.0,59,0.00,,,0.00,Wunderground v.1.15,2013-11-13 23:50:00,
2013-11-13 19:00:00,25.6,14.4,30.20,WSW,249,0.0,0.0,62,0.00,,,0.00,Wunderground v.1.15,2013-11-14 00:00:00,
2013-11-13 19:05:00,25.4,14.5,30.20,WSW,249,0.0,0.0,63,0.00,,,0.00,Wunderground v.1.15,2013-11-14 00:05:00,
2013-11-13 19:15:00,25.4,15.3,30.20,WSW,249,0.0,0.0,65,0.00,,,0.00,Wunderground v.1.15,2013-11-14 00:15:00,
2013-11-13 19:20:00,25.5,15.4,30.20,WSW,249,0.0,0.0,65,0.00,,,0.00,Wunderground v.1.15,2013-11-14 00:20:00,
2013-11-13 19:30:00,25.8,16.3,30.20,WSW,249,0.0,0.0,67,0.00,,,0.00,Wunderground v.1.15,2013-11-14 00:30:00,
2013-11-13 19:35:00,25.8,16.3,30.19,WSW,249,0.0,0.0,67,0.00,,,0.00,Wunderground v.1.15,2013-11-14 00:35:00,
2013-11-13 19:45:00,25.4,16.0,30.19,WSW,249,0.0,0.0,67,0.00,,,0.00,Wunderground v.1.15,2013-11-14 00:45:00,
2013-11-13 19:50:00,25.1,15.3,30.19,WSW,249,0.0,0.0,66,0.00,,,0.00,Wunderground v.1.15,2013-11-14 00:50:00,
2013-11-13 20:00:00,24.8,15.4,30.19,WSW,249,0.0,0.0,67,0.00,,,0.00,Wunderground v.1.15,2013-11-14 01:00:00,
2013-11-13 20:05:00,24.7,15.6,30.19,WSW,249,0.0,0.0,68,0.00,,,0.00,Wunderground v.1.15,2013-11-14 01:05:00,
2013-11-13 20:15:00,24.3,15.6,30.18,WSW,249,0.0,0.0,69,0.00,,,0.00,Wunderground v.1.15,2013-11-14 01:15:00,
2013-11-13 20:20:00,24.2,15.8,30.18,WSW,245,0.0,0.0,70,0.00,,,0.00,Wunderground v.1.15,2013-11-14 01:20:00,
2013-11-13 20:30:00,24.4,16.0,30.18,SSW,210,0.0,0.0,70,0.00,,,0.00,Wunderground v.1.15,2013-11-14 01:30:00,
2013-11-13 20:35:00,26.1,16.6,30.18,South,183,1.0,2.0,67,0.00,,,0.00,Wunderground v.1.15,2013-11-14 01:35:00,
2013-11-13 20:40:00,27.2,16.3,30.18,SSW,202,1.0,1.0,63,0.00,,,0.00,Wunderground v.1.15,2013-11-14 01:40:00,
2013-11-13 20:50:00,28.0,16.6,30.18,SW,219,0.0,0.0,62,0.00,,,0.00,Wunderground v.1.15,2013-11-14 01:50:00,
2013-11-13 20:55:00,28.0,16.3,30.17,SSW,196,0.0,1.0,61,0.00,,,0.00,Wunderground v.1.15,2013-11-14 01:55:00,
2013-11-13 21:05:00,28.0,16.3,30.17,South,189,1.0,3.0,61,0.00,,,0.00,Wunderground v.1.15,2013-11-14 02:05:00,
2013-11-13 21:15:00,28.0,16.6,30.16,SSW,201,1.0,1.0,62,0.00,,,0.00,Wunderground v.1.15,2013-11-14 02:15:00,
2013-11-13 21:20:00,28.1,16.7,30.15,SSW,210,1.0,1.0,62,0.00,,,0.00,Wunderground v.1.15,2013-11-14 02:20:00,
2013-11-13 21:25:00,28.3,16.9,30.15,South,184,1.0,1.0,62,0.00,,,0.00,Wunderground v.1.15,2013-11-14 02:25:00,
2013-11-13 21:35:00,28.3,17.3,30.15,South,186,0.0,1.0,63,0.00,,,0.00,Wunderground v.1.15,2013-11-14 02:35:00,
2013-11-13 21:40:00,28.2,17.2,30.15,South,186,0.0,0.0,63,0.00,,,0.00,Wunderground v.1.15,2013-11-14 02:40:00,
2013-11-13 21:50:00,28.0,17.0,30.15,NW,318,0.0,1.0,63,0.00,,,0.00,Wunderground v.1.15,2013-11-14 02:50:00,
2013-11-13 21:55:00,28.2,17.2,30.14,West,271,0.0,1.0,63,0.00,,,0.00,Wunderground v.1.15,2013-11-14 02:55:00,
2013-11-13 22:05:00,28.5,17.9,30.14,South,171,0.0,3.0,64,0.00,,,0.00,Wunderground v.1.15,2013-11-14 03:05:00,
2013-11-13 22:15:00,28.9,18.2,30.13,SSW,197,1.0,1.0,64,0.00,,,0.00,Wunderground v.1.15,2013-11-14 03:15:00,
2013-11-13 22:20:00,29.0,19.1,30.13,South,182,0.0,0.0,66,0.00,,,0.00,Wunderground v.1.15,2013-11-14 03:20:00,
2013-11-13 22:30:00,29.7,19.7,30.13,South,188,2.0,2.0,66,0.00,,,0.00,Wunderground v.1.15,2013-11-14 03:30:00,
2013-11-13 22:35:00,29.8,19.5,30.12,South,184,2.0,6.0,65,0.00,,,0.00,Wunderground v.1.15,2013-11-14 03:35:00,
2013-11-13 22:40:00,29.9,19.9,30.12,South,182,2.0,3.0,66,0.00,,,0.00,Wunderground v.1.15,2013-11-14 03:40:00,
2013-11-13 22:50:00,30.1,20.1,30.11,SSW,198,2.0,2.0,66,0.00,,,0.00,Wunderground v.1.15,2013-11-14 03:50:00,
2013-11-13 22:55:00,30.1,20.1,30.11,South,188,1.0,3.0,66,0.00,,,0.00,Wunderground v.1.15,2013-11-14 03:55:00,
2013-11-13 23:05:00,30.1,20.8,30.11,South,175,1.0,2.0,68,0.00,,,0.00,Wunderground v.1.15,2013-11-14 04:05:00,
2013-11-13 23:15:00,30.0,20.7,30.11,SSE,168,2.0,3.0,68,0.00,,,0.00,Wunderground v.1.15,2013-11-14 04:15:00,
2013-11-13 23:20:00,29.8,20.2,30.11,SSW,192,1.0,1.0,67,0.00,,,0.00,Wunderground v.1.15,2013-11-14 04:20:00,
2013-11-13 23:25:00,29.7,20.4,30.11,SSW,202,1.0,1.0,68,0.00,,,0.00,Wunderground v.1.15,2013-11-14 04:25:00,
2013-11-13 23:35:00,29.5,20.6,30.10,SSE,165,2.0,2.0,69,0.00,,,0.00,Wunderground v.1.15,2013-11-14 04:35:00,
2013-11-13 23:40:00,29.4,20.5,30.10,South,176,2.0,2.0,69,0.00,,,0.00,Wunderground v.1.15,2013-11-14 04:40:00,
2013-11-13 23:50:00,29.5,20.9,30.09,South,179,2.0,2.0,70,0.00,,,0.00,Wunderground v.1.15,2013-11-14 04:50:00,
2013-11-13 23:55:00,29.5,20.6,30.09,SSW,202,1.0,2.0,69,0.00,,,0.00,Wunderground v.1.15,2013-11-14 04:55:00,